Year,Month,Day,Hour,Minute,Value (Times are PST for windspeed in km/hr)
2018,12,19,00,00,1.60
2018,12,19,00,01,3.80
2018,12,19,00,02,4.70
2018,12,19,00,03,4.10
2018,12,19,00,04,5.10
2018,12,19,00,05,3.10
2018,12,19,00,06,1.60
2018,12,19,00,07,7.50
2018,12,19,00,08,7.40
2018,12,19,00,09,6.90
2018,12,19,00,10,5.00
2018,12,19,00,11,2.40
2018,12,19,00,12,5.10
2018,12,19,00,13,8.10
2018,12,19,00,14,1.90
2018,12,19,00,15,3.90
2018,12,19,00,16,2.90
2018,12,19,00,17,5.20
2018,12,19,00,18,5.40
2018,12,19,00,19,3.50
2018,12,19,00,20,5.80
2018,12,19,00,21,5.40
2018,12,19,00,22,6.90
2018,12,19,00,23,5.10
2018,12,19,00,24,5.50
2018,12,19,00,25,5.50
2018,12,19,00,26,8.90
2018,12,19,00,27,4.30
2018,12,19,00,28,4.10
2018,12,19,00,29,5.50
2018,12,19,00,30,4.40
2018,12,19,00,31,8.90
2018,12,19,00,32,5.20
2018,12,19,00,33,8.20
2018,12,19,00,34,6.40
2018,12,19,00,35,7.10
2018,12,19,00,36,4.80
2018,12,19,00,37,6.00
2018,12,19,00,38,4.10
2018,12,19,00,39,2.50
2018,12,19,00,40,5.30
2018,12,19,00,41,1.50
2018,12,19,00,42,0.60
2018,12,19,00,43,2.70
2018,12,19,00,44,1.90
2018,12,19,00,45,7.70
2018,12,19,00,46,5.40
2018,12,19,00,47,4.10
2018,12,19,00,48,4.80
2018,12,19,00,49,7.90
2018,12,19,00,50,8.80
2018,12,19,00,51,13.10
2018,12,19,00,52,10.20
2018,12,19,00,53,13.10
2018,12,19,00,54,11.70
2018,12,19,00,55,11.40
2018,12,19,00,56,6.20
2018,12,19,00,57,4.20
2018,12,19,00,58,3.90
2018,12,19,00,59,3.00
2018,12,19,01,00,2.30
2018,12,19,01,01,1.20
2018,12,19,01,02,0.10
2018,12,19,01,03,0.00
2018,12,19,01,04,0.00
2018,12,19,01,05,0.80
2018,12,19,01,06,1.20
2018,12,19,01,07,0.00
2018,12,19,01,08,0.00
2018,12,19,01,09,0.00
2018,12,19,01,10,0.00
2018,12,19,01,11,0.10
2018,12,19,01,12,0.00
2018,12,19,01,13,0.00
2018,12,19,01,14,0.00
2018,12,19,01,15,0.00
2018,12,19,01,16,0.00
2018,12,19,01,17,0.00
2018,12,19,01,18,0.20
2018,12,19,01,19,1.20
2018,12,19,01,20,0.10
2018,12,19,01,21,0.00
2018,12,19,01,22,0.00
2018,12,19,01,23,2.30
2018,12,19,01,24,0.60
2018,12,19,01,25,1.90
2018,12,19,01,26,3.30
2018,12,19,01,27,0.00
2018,12,19,01,28,1.80
2018,12,19,01,29,1.00
2018,12,19,01,30,1.10
2018,12,19,01,31,4.50
2018,12,19,01,32,2.30
2018,12,19,01,33,3.90
2018,12,19,01,34,4.90
2018,12,19,01,35,3.10
2018,12,19,01,36,4.60
2018,12,19,01,37,7.40
2018,12,19,01,38,6.10
2018,12,19,01,39,5.80
2018,12,19,01,40,3.10
2018,12,19,01,41,3.00
2018,12,19,01,42,2.20
2018,12,19,01,43,1.20
2018,12,19,01,44,1.80
2018,12,19,01,45,2.40
2018,12,19,01,46,2.60
2018,12,19,01,47,0.60
2018,12,19,01,48,0.00
2018,12,19,01,49,0.40
2018,12,19,01,50,2.90
2018,12,19,01,51,0.20
2018,12,19,01,52,2.40
2018,12,19,01,53,3.40
2018,12,19,01,54,2.20
2018,12,19,01,55,3.10
2018,12,19,01,56,4.40
2018,12,19,01,57,2.40
2018,12,19,01,58,3.30
2018,12,19,01,59,4.30
2018,12,19,02,00,1.80
2018,12,19,02,01,0.70
2018,12,19,02,02,4.80
2018,12,19,02,03,4.90
2018,12,19,02,04,4.70
2018,12,19,02,05,2.00
2018,12,19,02,06,2.80
2018,12,19,02,07,4.40
2018,12,19,02,08,4.60
2018,12,19,02,09,5.00
2018,12,19,02,10,3.80
2018,12,19,02,11,2.10
2018,12,19,02,12,5.40
2018,12,19,02,13,7.20
2018,12,19,02,14,9.20
2018,12,19,02,15,7.10
2018,12,19,02,16,13.40
2018,12,19,02,17,12.70
2018,12,19,02,18,9.30
2018,12,19,02,19,7.90
2018,12,19,02,20,10.70
2018,12,19,02,21,10.30
2018,12,19,02,22,13.10
2018,12,19,02,23,8.70
2018,12,19,02,24,10.90
2018,12,19,02,25,9.00
2018,12,19,02,26,8.60
2018,12,19,02,27,10.00
2018,12,19,02,28,9.80
2018,12,19,02,29,8.40
2018,12,19,02,30,8.10
2018,12,19,02,31,10.30
2018,12,19,02,32,9.30
2018,12,19,02,33,9.00
2018,12,19,02,34,8.60
2018,12,19,02,35,8.40
2018,12,19,02,36,5.60
2018,12,19,02,37,6.70
2018,12,19,02,38,8.10
2018,12,19,02,39,10.10
2018,12,19,02,40,11.10
2018,12,19,02,41,10.00
2018,12,19,02,42,8.90
2018,12,19,02,43,8.80
2018,12,19,02,44,7.50
2018,12,19,02,45,9.50
2018,12,19,02,46,9.10
2018,12,19,02,47,9.20
2018,12,19,02,48,11.10
2018,12,19,02,49,12.20
2018,12,19,02,50,8.80
2018,12,19,02,51,8.80
2018,12,19,02,52,11.70
2018,12,19,02,53,10.60
2018,12,19,02,54,9.90
2018,12,19,02,55,10.30
2018,12,19,02,56,11.90
2018,12,19,02,57,8.90
2018,12,19,02,58,8.70
2018,12,19,02,59,8.40
2018,12,19,03,00,9.20
2018,12,19,03,01,9.70
2018,12,19,03,02,8.80
2018,12,19,03,03,6.70
2018,12,19,03,04,7.00
2018,12,19,03,05,8.30
2018,12,19,03,06,9.80
2018,12,19,03,07,10.10
2018,12,19,03,08,10.20
2018,12,19,03,09,11.90
2018,12,19,03,10,5.40
2018,12,19,03,11,1.80
2018,12,19,03,12,4.70
2018,12,19,03,13,0.60
2018,12,19,03,14,0.60
2018,12,19,03,15,2.00
2018,12,19,03,16,3.60
2018,12,19,03,17,6.70
2018,12,19,03,18,6.20
2018,12,19,03,19,6.30
2018,12,19,03,20,7.90
2018,12,19,03,21,6.10
2018,12,19,03,22,5.20
2018,12,19,03,23,3.20
2018,12,19,03,24,3.10
2018,12,19,03,25,6.10
2018,12,19,03,26,5.30
2018,12,19,03,27,5.80
2018,12,19,03,28,9.10
2018,12,19,03,29,8.70
2018,12,19,03,30,10.90
2018,12,19,03,31,11.10
2018,12,19,03,32,5.60
2018,12,19,03,33,8.60
2018,12,19,03,34,7.00
2018,12,19,03,35,7.80
2018,12,19,03,36,6.20
2018,12,19,03,37,8.90
2018,12,19,03,38,7.70
2018,12,19,03,39,5.80
2018,12,19,03,40,7.10
2018,12,19,03,41,5.50
2018,12,19,03,42,8.50
2018,12,19,03,43,5.50
2018,12,19,03,44,6.20
2018,12,19,03,45,7.80
2018,12,19,03,46,4.30
2018,12,19,03,47,4.90
2018,12,19,03,48,4.40
2018,12,19,03,49,5.10
2018,12,19,03,50,7.80
2018,12,19,03,51,6.10
2018,12,19,03,52,9.00
2018,12,19,03,53,8.00
2018,12,19,03,54,3.90
2018,12,19,03,55,2.20
2018,12,19,03,56,4.80
2018,12,19,03,57,2.60
2018,12,19,03,58,2.80
2018,12,19,03,59,2.20
2018,12,19,04,00,3.40
2018,12,19,04,01,2.80
2018,12,19,04,02,6.40
2018,12,19,04,03,11.00
2018,12,19,04,04,3.40
2018,12,19,04,08,0.00
2018,12,19,04,09,1.00
2018,12,19,04,10,3.90
2018,12,19,04,11,7.10
2018,12,19,04,12,3.90
2018,12,19,04,13,6.20
2018,12,19,04,14,3.70
2018,12,19,04,15,4.70
2018,12,19,04,16,4.40
2018,12,19,04,17,4.00
2018,12,19,04,18,4.20
2018,12,19,04,19,3.90
2018,12,19,04,20,3.80
2018,12,19,04,21,10.00
2018,12,19,04,22,4.30
2018,12,19,04,23,1.10
2018,12,19,04,24,1.80
2018,12,19,04,25,8.90
2018,12,19,04,26,9.20
2018,12,19,04,27,5.60
2018,12,19,04,28,7.70
2018,12,19,04,29,6.80
2018,12,19,04,30,9.30
2018,12,19,04,31,6.20
2018,12,19,04,32,6.70
2018,12,19,04,33,5.10
2018,12,19,04,34,1.10
2018,12,19,04,35,3.10
2018,12,19,04,36,3.80
2018,12,19,04,37,5.90
2018,12,19,04,38,3.50
2018,12,19,04,39,4.90
2018,12,19,04,40,4.10
2018,12,19,04,41,3.00
2018,12,19,04,42,4.70
2018,12,19,04,43,4.30
2018,12,19,04,44,2.90
2018,12,19,04,45,2.20
2018,12,19,04,46,6.80
2018,12,19,04,47,4.00
2018,12,19,04,48,4.90
2018,12,19,04,49,12.00
2018,12,19,04,50,6.70
2018,12,19,04,51,7.40
2018,12,19,04,52,7.20
2018,12,19,04,53,6.20
2018,12,19,04,54,6.90
2018,12,19,04,55,7.20
2018,12,19,04,56,7.10
2018,12,19,04,57,6.20
2018,12,19,04,58,5.80
2018,12,19,04,59,7.40
2018,12,19,05,00,10.00
2018,12,19,05,01,7.50
2018,12,19,05,02,6.40
2018,12,19,05,03,6.70
2018,12,19,05,04,5.80
2018,12,19,05,05,7.80
2018,12,19,05,06,8.90
2018,12,19,05,07,8.20
2018,12,19,05,08,13.10
2018,12,19,05,09,8.90
2018,12,19,05,10,8.70
2018,12,19,05,11,7.70
2018,12,19,05,12,5.60
2018,12,19,05,13,2.00
2018,12,19,05,14,4.40
2018,12,19,05,15,3.10
2018,12,19,05,16,4.50
2018,12,19,05,17,4.40
2018,12,19,05,18,1.00
2018,12,19,05,19,2.00
2018,12,19,05,20,2.70
2018,12,19,05,21,2.00
2018,12,19,05,22,0.80
2018,12,19,05,23,1.90
2018,12,19,05,24,2.60
2018,12,19,05,25,0.10
2018,12,19,05,26,2.30
2018,12,19,05,27,4.00
2018,12,19,05,28,1.70
2018,12,19,05,29,1.40
2018,12,19,05,30,0.00
2018,12,19,05,31,0.30
2018,12,19,05,32,1.50
2018,12,19,05,33,6.60
2018,12,19,05,34,3.80
2018,12,19,05,35,1.60
2018,12,19,05,36,1.20
2018,12,19,05,37,2.80
2018,12,19,05,38,4.80
2018,12,19,05,39,4.90
2018,12,19,05,40,5.10
2018,12,19,05,41,4.10
2018,12,19,05,42,6.90
2018,12,19,05,43,6.10
2018,12,19,05,44,3.80
2018,12,19,05,45,3.80
2018,12,19,05,46,4.00
2018,12,19,05,47,1.50
2018,12,19,05,48,2.10
2018,12,19,05,49,3.20
2018,12,19,05,50,3.10
2018,12,19,05,51,2.10
2018,12,19,05,52,3.20
2018,12,19,05,53,3.20
2018,12,19,05,54,1.60
2018,12,19,05,55,1.80
2018,12,19,05,56,1.20
2018,12,19,05,57,0.20
2018,12,19,05,58,0.30
2018,12,19,05,59,0.60
2018,12,19,06,00,0.40
2018,12,19,06,01,0.80
2018,12,19,06,02,2.90
2018,12,19,06,03,1.20
2018,12,19,06,04,3.40
2018,12,19,06,05,3.40
2018,12,19,06,06,0.40
2018,12,19,06,07,0.20
2018,12,19,06,08,1.00
2018,12,19,06,09,3.40
2018,12,19,06,10,3.00
2018,12,19,06,11,5.00
2018,12,19,06,12,2.40
2018,12,19,06,13,6.30
2018,12,19,06,14,2.00
2018,12,19,06,15,2.30
2018,12,19,06,16,6.00
2018,12,19,06,17,6.60
2018,12,19,06,18,6.40
2018,12,19,06,19,1.40
2018,12,19,06,20,4.20
2018,12,19,06,21,4.20
2018,12,19,06,22,5.60
2018,12,19,06,23,1.80
2018,12,19,06,24,1.90
2018,12,19,06,25,2.10
2018,12,19,06,26,1.80
2018,12,19,06,27,0.10
2018,12,19,06,28,0.00
2018,12,19,06,29,0.50
2018,12,19,06,30,0.00
2018,12,19,06,31,0.50
2018,12,19,06,32,1.50
2018,12,19,06,33,5.30
2018,12,19,06,34,5.30
2018,12,19,06,35,4.30
2018,12,19,06,36,6.70
2018,12,19,06,37,1.80
2018,12,19,06,38,1.00
2018,12,19,06,39,1.60
2018,12,19,06,40,1.80
2018,12,19,06,41,0.30
2018,12,19,06,42,1.70
2018,12,19,06,43,3.20
2018,12,19,06,44,2.70
2018,12,19,06,45,2.90
2018,12,19,06,46,3.30
2018,12,19,06,47,4.10
2018,12,19,06,48,3.00
2018,12,19,06,49,2.30
2018,12,19,06,50,4.10
2018,12,19,06,51,2.00
2018,12,19,06,52,3.10
2018,12,19,06,53,3.80
2018,12,19,06,54,4.10
2018,12,19,06,55,5.30
2018,12,19,06,56,4.50
2018,12,19,06,57,4.50
2018,12,19,06,58,3.70
2018,12,19,06,59,2.80
2018,12,19,07,00,2.00
2018,12,19,07,01,0.20
2018,12,19,07,02,0.00
2018,12,19,07,03,0.60
2018,12,19,07,04,2.30
2018,12,19,07,05,2.10
2018,12,19,07,06,1.50
2018,12,19,07,07,2.50
2018,12,19,07,08,2.70
2018,12,19,07,09,2.60
2018,12,19,07,10,2.50
2018,12,19,07,11,2.90
2018,12,19,07,12,2.90
2018,12,19,07,13,3.30
2018,12,19,07,14,3.20
2018,12,19,07,15,3.10
2018,12,19,07,16,2.80
2018,12,19,07,17,1.70
2018,12,19,07,18,0.70
2018,12,19,07,19,0.00
2018,12,19,07,20,0.00
2018,12,19,07,21,0.00
2018,12,19,07,22,0.90
2018,12,19,07,23,0.10
2018,12,19,07,24,0.00
2018,12,19,07,25,0.00
2018,12,19,07,26,0.00
2018,12,19,07,27,0.00
2018,12,19,07,28,0.00
2018,12,19,07,29,0.00
2018,12,19,07,30,0.00
2018,12,19,07,31,3.00
2018,12,19,07,32,5.10
2018,12,19,07,33,2.20
2018,12,19,07,34,0.20
2018,12,19,07,35,0.00
2018,12,19,07,36,1.50
2018,12,19,07,37,4.80
2018,12,19,07,38,4.90
2018,12,19,07,39,3.80
2018,12,19,07,40,3.10
2018,12,19,07,41,2.40
2018,12,19,07,42,2.10
2018,12,19,07,43,2.50
2018,12,19,07,44,1.20
2018,12,19,07,45,1.40
2018,12,19,07,46,3.60
2018,12,19,07,47,2.00
2018,12,19,07,48,0.90
2018,12,19,07,49,1.40
2018,12,19,07,50,0.60
2018,12,19,07,51,1.50
2018,12,19,07,52,2.30
2018,12,19,07,53,4.10
2018,12,19,07,54,2.80
2018,12,19,07,55,3.80
2018,12,19,07,56,0.80
2018,12,19,07,57,0.20
2018,12,19,07,58,1.70
2018,12,19,07,59,0.10
2018,12,19,08,00,3.70
2018,12,19,08,01,3.70
2018,12,19,08,02,0.40
2018,12,19,08,03,0.60
2018,12,19,08,04,3.50
2018,12,19,08,05,3.30
2018,12,19,08,06,4.10
2018,12,19,08,07,3.10
2018,12,19,08,08,2.70
2018,12,19,08,09,2.30
2018,12,19,08,10,2.30
2018,12,19,08,11,1.90
2018,12,19,08,12,5.10
2018,12,19,08,13,6.30
2018,12,19,08,14,6.50
2018,12,19,08,15,3.00
2018,12,19,08,16,5.00
2018,12,19,08,17,5.20
2018,12,19,08,18,4.30
2018,12,19,08,19,5.30
2018,12,19,08,20,4.50
2018,12,19,08,21,4.80
2018,12,19,08,22,2.00
2018,12,19,08,23,1.10
2018,12,19,08,24,3.50
2018,12,19,08,25,2.00
2018,12,19,08,26,4.00
2018,12,19,08,27,3.50
2018,12,19,08,28,2.00
2018,12,19,08,29,3.70
2018,12,19,08,30,3.00
2018,12,19,08,31,0.50
2018,12,19,08,32,5.10
2018,12,19,08,33,0.30
2018,12,19,08,34,1.00
2018,12,19,08,35,0.80
2018,12,19,08,36,0.40
2018,12,19,08,37,3.00
2018,12,19,08,38,1.70
2018,12,19,08,39,1.10
2018,12,19,08,40,3.60
2018,12,19,08,41,3.20
2018,12,19,08,42,3.70
2018,12,19,08,43,4.10
2018,12,19,08,44,3.60
2018,12,19,08,45,4.20
2018,12,19,08,46,5.60
2018,12,19,08,47,6.10
2018,12,19,08,48,7.80
2018,12,19,08,49,6.10
2018,12,19,08,50,5.40
2018,12,19,08,51,6.00
2018,12,19,08,52,6.80
2018,12,19,08,53,2.30
2018,12,19,08,54,2.80
2018,12,19,08,55,2.30
2018,12,19,08,56,0.00
2018,12,19,08,57,0.30
2018,12,19,08,58,1.80
2018,12,19,08,59,1.60
2018,12,19,09,00,0.60
2018,12,19,09,01,0.00
2018,12,19,09,02,1.40
2018,12,19,09,03,3.10
2018,12,19,09,04,3.00
2018,12,19,09,05,2.00
2018,12,19,09,06,2.10
2018,12,19,09,07,0.50
2018,12,19,09,08,3.40
2018,12,19,09,09,4.90
2018,12,19,09,10,7.70
2018,12,19,09,11,7.70
2018,12,19,09,12,9.00
2018,12,19,09,13,5.00
2018,12,19,09,14,2.10
2018,12,19,09,15,8.30
2018,12,19,09,16,8.30
2018,12,19,09,17,3.60
2018,12,19,09,18,4.70
2018,12,19,09,19,4.80
2018,12,19,09,20,4.80
2018,12,19,09,21,8.40
2018,12,19,09,22,5.90
2018,12,19,09,23,2.40
2018,12,19,09,24,8.00
2018,12,19,09,25,5.20
2018,12,19,09,26,2.60
2018,12,19,09,27,0.20
2018,12,19,09,28,0.20
2018,12,19,09,29,2.80
2018,12,19,09,30,0.70
2018,12,19,09,31,0.60
2018,12,19,09,32,0.80
2018,12,19,09,33,0.10
2018,12,19,09,34,2.40
2018,12,19,09,35,1.40
2018,12,19,09,36,1.40
2018,12,19,09,37,0.60
2018,12,19,09,38,0.00
2018,12,19,09,39,0.00
2018,12,19,09,40,0.00
2018,12,19,09,41,0.00
2018,12,19,09,42,0.10
2018,12,19,09,43,0.10
2018,12,19,09,44,3.30
2018,12,19,09,45,0.70
2018,12,19,09,46,1.60
2018,12,19,09,47,2.70
2018,12,19,09,48,0.50
2018,12,19,09,49,0.10
2018,12,19,09,50,0.00
2018,12,19,09,51,0.00
2018,12,19,09,52,0.00
2018,12,19,09,53,0.50
2018,12,19,09,54,3.40
2018,12,19,09,55,1.50
2018,12,19,09,56,1.50
2018,12,19,09,57,2.90
2018,12,19,09,58,2.80
2018,12,19,09,59,3.40
2018,12,19,10,00,4.50
2018,12,19,10,01,3.80
2018,12,19,10,02,5.10
2018,12,19,10,03,5.00
2018,12,19,10,04,5.40
2018,12,19,10,05,6.50
2018,12,19,10,06,6.30
2018,12,19,10,07,6.80
2018,12,19,10,08,6.20
2018,12,19,10,09,4.10
2018,12,19,10,10,4.60
2018,12,19,10,11,5.30
2018,12,19,10,12,8.10
2018,12,19,10,13,8.00
2018,12,19,10,14,7.70
2018,12,19,10,15,8.00
2018,12,19,10,16,6.50
2018,12,19,10,17,10.50
2018,12,19,10,18,9.40
2018,12,19,10,19,10.40
2018,12,19,10,20,11.40
2018,12,19,10,21,15.00
2018,12,19,10,22,12.90
2018,12,19,10,23,5.00
2018,12,19,10,24,3.70
2018,12,19,10,25,4.70
2018,12,19,10,26,0.60
2018,12,19,10,27,1.50
2018,12,19,10,28,3.70
2018,12,19,10,29,6.70
2018,12,19,10,30,8.40
2018,12,19,10,31,6.80
2018,12,19,10,32,6.20
2018,12,19,10,33,2.00
2018,12,19,10,34,1.40
2018,12,19,10,35,1.10
2018,12,19,10,36,2.40
2018,12,19,10,37,0.00
2018,12,19,10,38,0.40
2018,12,19,10,39,5.10
2018,12,19,10,40,8.70
2018,12,19,10,41,7.90
2018,12,19,10,42,7.80
2018,12,19,10,43,4.10
2018,12,19,10,44,2.50
2018,12,19,10,45,5.00
2018,12,19,10,46,7.00
2018,12,19,10,47,6.70
2018,12,19,10,48,7.30
2018,12,19,10,49,6.40
2018,12,19,10,50,7.70
2018,12,19,10,51,7.00
2018,12,19,10,52,8.40
2018,12,19,10,53,6.40
2018,12,19,10,54,5.70
2018,12,19,10,55,6.50
2018,12,19,10,56,7.10
2018,12,19,10,57,7.90
2018,12,19,10,58,5.70
2018,12,19,10,59,5.30
2018,12,19,11,00,3.80
2018,12,19,11,01,3.90
2018,12,19,11,02,5.50
2018,12,19,11,03,5.30
2018,12,19,11,04,1.80
2018,12,19,11,05,0.10
2018,12,19,11,06,2.00
2018,12,19,11,07,2.40
2018,12,19,11,08,0.00
2018,12,19,11,09,1.60
2018,12,19,11,10,3.10
2018,12,19,11,11,4.20
2018,12,19,11,12,2.50
2018,12,19,11,13,1.10
2018,12,19,11,14,0.60
2018,12,19,11,15,0.10
2018,12,19,11,16,2.40
2018,12,19,11,17,1.70
2018,12,19,11,18,0.80
2018,12,19,11,19,1.80
2018,12,19,11,20,0.10
2018,12,19,11,21,0.70
2018,12,19,11,22,1.00
2018,12,19,11,23,2.30
2018,12,19,11,24,4.10
2018,12,19,11,25,3.50
2018,12,19,11,26,1.70
2018,12,19,11,27,2.80
2018,12,19,11,28,2.70
2018,12,19,11,29,1.00
2018,12,19,11,30,1.50
2018,12,19,11,31,0.10
2018,12,19,11,32,0.00
2018,12,19,11,33,0.00
2018,12,19,11,34,0.00
2018,12,19,11,35,0.00
2018,12,19,11,36,0.00
2018,12,19,11,37,0.00
2018,12,19,11,38,0.00
2018,12,19,11,39,0.00
2018,12,19,11,40,0.00
2018,12,19,11,41,0.00
2018,12,19,11,42,0.00
2018,12,19,11,43,0.00
2018,12,19,11,44,0.00
2018,12,19,11,45,0.00
2018,12,19,11,46,0.20
2018,12,19,11,47,1.20
2018,12,19,11,48,2.40
2018,12,19,11,49,2.60
2018,12,19,11,50,1.80
2018,12,19,11,51,2.10
2018,12,19,11,52,1.10
2018,12,19,11,53,0.80
2018,12,19,11,54,1.50
2018,12,19,11,55,6.50
2018,12,19,11,56,3.50
2018,12,19,11,57,1.00
2018,12,19,11,58,3.30
2018,12,19,11,59,1.60
2018,12,19,12,00,1.90
2018,12,19,12,01,3.30
2018,12,19,12,02,4.20
2018,12,19,12,03,3.60
2018,12,19,12,04,3.60
2018,12,19,12,05,3.70
2018,12,19,12,06,7.10
2018,12,19,12,07,4.70
2018,12,19,12,08,3.90
2018,12,19,12,09,2.70
2018,12,19,12,10,1.70
2018,12,19,12,11,1.60
2018,12,19,12,12,3.70
2018,12,19,12,13,3.70
2018,12,19,12,14,3.80
2018,12,19,12,15,3.60
2018,12,19,12,16,1.90
2018,12,19,12,17,1.60
2018,12,19,12,18,1.90
2018,12,19,12,19,2.60
2018,12,19,12,20,3.50
2018,12,19,12,21,2.60
2018,12,19,12,22,2.40
2018,12,19,12,23,3.40
2018,12,19,12,24,3.00
2018,12,19,12,25,2.70
2018,12,19,12,26,1.40
2018,12,19,12,27,6.10
2018,12,19,12,28,5.00
2018,12,19,12,29,3.80
2018,12,19,12,30,3.40
2018,12,19,12,31,5.40
2018,12,19,12,32,5.70
2018,12,19,12,33,5.30
2018,12,19,12,34,4.90
2018,12,19,12,35,3.10
2018,12,19,12,36,3.90
2018,12,19,12,37,7.10
2018,12,19,12,38,4.70
2018,12,19,12,39,3.30
2018,12,19,12,40,3.10
2018,12,19,12,41,5.60
2018,12,19,12,42,4.00
2018,12,19,12,43,4.90
2018,12,19,12,44,6.40
2018,12,19,12,45,5.70
2018,12,19,12,46,3.40
2018,12,19,12,47,1.80
2018,12,19,12,48,4.30
2018,12,19,12,49,3.70
2018,12,19,12,50,3.80
2018,12,19,12,51,2.70
2018,12,19,12,52,0.20
2018,12,19,12,53,0.00
2018,12,19,12,54,0.00
2018,12,19,12,55,0.40
2018,12,19,12,56,1.00
2018,12,19,12,57,2.10
2018,12,19,12,58,3.90
2018,12,19,12,59,3.00
2018,12,19,13,00,3.00
2018,12,19,13,01,4.10
2018,12,19,13,02,2.80
2018,12,19,13,03,3.30
2018,12,19,13,04,2.80
2018,12,19,13,05,2.10
2018,12,19,13,06,2.50
2018,12,19,13,07,2.40
2018,12,19,13,08,2.00
2018,12,19,13,09,1.60
2018,12,19,13,10,1.10
2018,12,19,13,11,2.00
2018,12,19,13,12,0.20
2018,12,19,13,13,0.00
2018,12,19,13,14,0.00
2018,12,19,13,15,0.00
2018,12,19,13,16,0.00
2018,12,19,13,17,0.20
2018,12,19,13,18,0.20
2018,12,19,13,19,0.30
2018,12,19,13,20,0.30
2018,12,19,13,21,0.70
2018,12,19,13,22,0.20
2018,12,19,13,23,1.00
2018,12,19,13,24,0.00
2018,12,19,13,25,0.00
2018,12,19,13,26,0.00
2018,12,19,13,27,0.00
2018,12,19,13,28,0.20
2018,12,19,13,29,0.10
2018,12,19,13,30,0.00
2018,12,19,13,31,0.00
2018,12,19,13,32,0.00
2018,12,19,13,33,0.00
2018,12,19,13,34,0.60
2018,12,19,13,35,2.00
2018,12,19,13,36,3.40
2018,12,19,13,37,2.80
2018,12,19,13,38,4.00
2018,12,19,13,39,2.10
2018,12,19,13,40,3.10
2018,12,19,13,41,4.70
2018,12,19,13,42,4.20
2018,12,19,13,43,5.40
2018,12,19,13,44,4.80
2018,12,19,13,45,4.80
2018,12,19,13,46,3.40
2018,12,19,13,47,3.70
2018,12,19,13,48,5.10
2018,12,19,13,49,5.80
2018,12,19,13,50,5.20
2018,12,19,13,51,5.30
2018,12,19,13,52,5.70
2018,12,19,13,53,5.00
2018,12,19,13,54,5.70
2018,12,19,13,55,4.80
2018,12,19,13,56,2.60
2018,12,19,13,57,4.40
2018,12,19,13,58,2.10
2018,12,19,13,59,1.70
2018,12,19,14,00,1.70
2018,12,19,14,01,1.80
2018,12,19,14,02,1.80
2018,12,19,14,03,2.40
2018,12,19,14,04,0.90
2018,12,19,14,05,0.00
2018,12,19,14,06,0.00
2018,12,19,14,07,1.20
2018,12,19,14,08,2.80
2018,12,19,14,09,3.10
2018,12,19,14,10,2.20
2018,12,19,14,11,1.60
2018,12,19,14,12,3.40
2018,12,19,14,13,3.50
2018,12,19,14,14,5.90
2018,12,19,14,15,3.70
2018,12,19,14,16,5.30
2018,12,19,14,17,10.80
2018,12,19,14,18,6.40
2018,12,19,14,19,4.70
2018,12,19,14,20,4.60
2018,12,19,14,21,4.70
2018,12,19,14,22,7.00
2018,12,19,14,23,4.60
2018,12,19,14,24,4.60
2018,12,19,14,25,2.40
2018,12,19,14,26,3.30
2018,12,19,14,27,3.90
2018,12,19,14,28,2.30
2018,12,19,14,29,4.20
2018,12,19,14,30,1.20
2018,12,19,14,31,0.40
2018,12,19,14,32,1.80
2018,12,19,14,33,0.40
2018,12,19,14,34,1.10
2018,12,19,14,35,0.20
2018,12,19,14,36,0.00
2018,12,19,14,37,1.90
2018,12,19,14,38,0.50
2018,12,19,14,39,2.80
2018,12,19,14,40,3.80
2018,12,19,14,41,7.10
2018,12,19,14,42,4.50
2018,12,19,14,43,6.00
2018,12,19,14,44,3.20
2018,12,19,14,45,3.30
2018,12,19,14,46,2.30
2018,12,19,14,47,2.00
2018,12,19,14,48,1.80
2018,12,19,14,49,2.10
2018,12,19,14,50,2.10
2018,12,19,14,51,3.60
2018,12,19,14,52,3.60
2018,12,19,14,53,2.80
2018,12,19,14,54,0.90
2018,12,19,14,55,1.20
2018,12,19,14,56,1.40
2018,12,19,14,57,2.90
2018,12,19,14,58,2.40
2018,12,19,14,59,2.80
2018,12,19,15,00,1.80
2018,12,19,15,01,1.80
2018,12,19,15,02,1.90
2018,12,19,15,03,3.30
2018,12,19,15,04,1.20
2018,12,19,15,05,2.90
2018,12,19,15,06,3.70
2018,12,19,15,07,0.70
2018,12,19,15,08,0.80
2018,12,19,15,09,2.80
2018,12,19,15,10,2.40
2018,12,19,15,11,1.90
2018,12,19,15,12,0.00
2018,12,19,15,13,1.00
2018,12,19,15,14,1.80
2018,12,19,15,15,1.40
2018,12,19,15,16,0.30
2018,12,19,15,17,0.00
2018,12,19,15,18,0.10
2018,12,19,15,19,0.00
2018,12,19,15,20,0.00
2018,12,19,15,21,0.40
2018,12,19,15,22,1.90
2018,12,19,15,23,0.30
2018,12,19,15,24,0.00
2018,12,19,15,25,1.80
2018,12,19,15,26,1.00
2018,12,19,15,27,0.20
2018,12,19,15,28,2.60
2018,12,19,15,29,1.90
2018,12,19,15,30,1.50
2018,12,19,15,31,1.20
2018,12,19,15,32,1.50
2018,12,19,15,33,0.60
2018,12,19,15,34,1.10
2018,12,19,15,35,1.10
2018,12,19,15,36,2.10
2018,12,19,15,37,2.50
2018,12,19,15,38,0.70
2018,12,19,15,39,0.70
2018,12,19,15,40,0.00
2018,12,19,15,41,0.00
2018,12,19,15,42,0.00
2018,12,19,15,43,0.00
2018,12,19,15,44,0.00
2018,12,19,15,45,0.00
2018,12,19,15,46,0.50
2018,12,19,15,47,1.10
2018,12,19,15,48,0.30
2018,12,19,15,49,0.00
2018,12,19,15,50,0.00
2018,12,19,15,51,0.30
2018,12,19,15,52,0.10
2018,12,19,15,53,0.00
2018,12,19,15,54,0.00
2018,12,19,15,55,0.00
2018,12,19,15,56,0.00
2018,12,19,15,57,0.00
2018,12,19,15,58,0.00
2018,12,19,15,59,0.00
2018,12,19,16,00,0.00
2018,12,19,16,01,0.00
2018,12,19,16,02,0.00
2018,12,19,16,03,0.00
2018,12,19,16,04,0.00
2018,12,19,16,05,0.00
2018,12,19,16,06,0.00
2018,12,19,16,07,0.00
2018,12,19,16,08,0.00
2018,12,19,16,09,0.00
2018,12,19,16,10,0.00
2018,12,19,16,11,0.00
2018,12,19,16,12,0.00
2018,12,19,16,13,0.00
2018,12,19,16,14,0.00
2018,12,19,16,15,0.00
2018,12,19,16,16,0.00
2018,12,19,16,17,0.00
2018,12,19,16,18,0.00
2018,12,19,16,19,0.00
2018,12,19,16,20,0.00
2018,12,19,16,21,0.00
2018,12,19,16,22,0.00
2018,12,19,16,23,0.00
2018,12,19,16,24,0.00
2018,12,19,16,25,0.00
2018,12,19,16,26,0.00
2018,12,19,16,27,0.00
2018,12,19,16,28,0.00
2018,12,19,16,29,0.00
2018,12,19,16,30,0.00
2018,12,19,16,31,0.00
2018,12,19,16,32,0.00
2018,12,19,16,33,0.00
2018,12,19,16,34,0.00
2018,12,19,16,35,0.00
2018,12,19,16,36,0.00
2018,12,19,16,37,0.00
2018,12,19,16,38,0.00
2018,12,19,16,39,0.00
2018,12,19,16,40,0.00
2018,12,19,16,41,0.00
2018,12,19,16,42,0.00
2018,12,19,16,43,0.00
2018,12,19,16,44,0.00
2018,12,19,16,45,0.00
2018,12,19,16,46,0.00
2018,12,19,16,47,0.00
2018,12,19,16,48,0.00
2018,12,19,16,49,0.00
2018,12,19,16,50,0.00
2018,12,19,16,51,0.00
2018,12,19,16,52,0.00
2018,12,19,16,53,0.00
2018,12,19,16,54,0.00
2018,12,19,16,55,0.30
2018,12,19,16,56,1.40
2018,12,19,16,57,0.20
2018,12,19,16,58,0.60
2018,12,19,16,59,0.50
2018,12,19,17,00,0.60
2018,12,19,17,01,0.10
2018,12,19,17,02,0.00
2018,12,19,17,03,0.20
2018,12,19,17,04,1.00
2018,12,19,17,05,0.00
2018,12,19,17,06,0.30
2018,12,19,17,07,2.10
2018,12,19,17,08,2.00
2018,12,19,17,09,1.60
2018,12,19,17,10,0.70
2018,12,19,17,11,0.00
2018,12,19,17,12,0.10
2018,12,19,17,13,1.10
2018,12,19,17,14,1.50
2018,12,19,17,15,0.50
2018,12,19,17,16,0.30
2018,12,19,17,17,0.00
2018,12,19,17,18,0.00
2018,12,19,17,19,0.00
2018,12,19,17,20,0.00
2018,12,19,17,21,0.00
2018,12,19,17,22,0.00
2018,12,19,17,23,0.00
2018,12,19,17,24,0.00
2018,12,19,17,25,0.00
2018,12,19,17,26,0.00
2018,12,19,17,27,0.00
2018,12,19,17,28,0.00
2018,12,19,17,29,0.00
2018,12,19,17,30,0.00
2018,12,19,17,31,1.50
2018,12,19,17,32,0.90
2018,12,19,17,33,0.90
2018,12,19,17,34,0.10
2018,12,19,17,35,0.10
2018,12,19,17,36,0.00
2018,12,19,17,37,0.90
2018,12,19,17,38,1.30
2018,12,19,17,39,1.90
2018,12,19,17,40,1.30
2018,12,19,17,41,0.60
2018,12,19,17,42,0.00
2018,12,19,17,43,0.00
2018,12,19,17,44,0.00
2018,12,19,17,45,0.00
2018,12,19,17,46,0.00
2018,12,19,17,47,0.00
2018,12,19,17,48,0.00
2018,12,19,17,49,0.00
2018,12,19,17,50,0.00
2018,12,19,17,51,0.00
2018,12,19,17,52,0.00
2018,12,19,17,53,0.00
2018,12,19,17,54,0.00
2018,12,19,17,55,0.00
2018,12,19,17,56,0.00
2018,12,19,17,57,0.00
2018,12,19,17,58,0.00
2018,12,19,17,59,0.00
2018,12,19,18,00,0.00
2018,12,19,18,01,0.00
2018,12,19,18,02,0.00
2018,12,19,18,03,0.00
2018,12,19,18,04,0.00
2018,12,19,18,05,0.00
2018,12,19,18,06,0.00
2018,12,19,18,07,0.00